sat.trackr.live / text

‹ back to catalog

STARLINK-2214

NORAD 48566 · 2021-041P

PAYLOAD ACTIVE UNKNOWN

§ Identity

Operator
Country
US
Launch date
2021-05-15
Launch site
AFETR
Launch vehicle
Mass (kg)
RCS (m²)

Purposes: comms

External: N2YO · Heavens-Above · Gunter

§ Orbital elements

Epoch: 2026-05-25T05:26:41.036640Z

Period
94.01 min
Inclination
53.1600°
Eccentricity
0.0001222
Mean motion
15.31703031 rev/d
Perigee alt
469.9 km
Apogee alt
471.6 km
Semi-major
6,848.9 km
B*
3.5265e-5
RAAN
152.9266°
Arg perigee
81.0996°
Mean anomaly
279.0144°
Rev number
27,667

§ Raw data

STARLINK-22141 48566U 21041P   26145.22686385  .00000729  00000+0  35265-4 0  99972 48566  53.1600 152.9266 0001222  81.0996 279.0144 15.31703031276676

JSON: /api/v1/satellites/48566 · /tle

For live sub-satellite position, see the globe view (requires WebGL).

§ Visibility from observer

Set your observer location to see the next 7 days of passes ≥ 10°. The values pass through the URL so the page stays shareable.

No JS? Fill the form by hand. The geolocation button needs JavaScript.